Погода в Уэст Йеллоустон

США     44°39′44″N   111°06′19″W
темп.,
°C
ветер,
м/с
пор.,
м/с
влажн.,
%
обл.,
%
осадки,
мм/ч
давл.,
гПа
погр.,
м
5 марта, пт
пт523:00−9вюв11850 0.0 102921
02:00−9вюв11790 0.0 103121
05:00−10вюв12840 0.0 103121
08:00−8вюв12870 0.0 103128
11:000ю137736 0.0 1027307
14:00+2юз257021 0.0 1023626
17:00+1ююз236811 0.0 102245
20:00−5вюв12776 0.0 102421
6 марта, сб
сб623:00−7в127617 0.0 102321
02:00−7в226886 0.0 102021
05:00−8в227278 0.0 101722
08:00−6в126585 0.0 101527
11:00+2юз385886 0.0 1009751
14:00+3юз8145871 0.0 10061489
17:000юз5126860 0.0 10081003
20:00−5ююз248960 0.0 101284
7 марта, вс
вс723:00−4юз4139466 0.0 1014866
02:00−4юз41195100 0.4 1016903
05:00−4юз51195100 0.8 1018943
08:00−4юз61292100 0.4 1019942
11:00−3юз71187100 0.8 10181015
14:00−2юз61180100 0.3 10161050
17:00−2юз51079100 0.4 10171053
20:00−5ююв1290100 0.0 101921
8 марта, пн
пн823:00−6вюв128995 0.0 101921
02:00−7в228451 0.0 101821
05:00−6в228074 0.0 101734
08:00−5в1280100 0.0 101528
11:00+2ююз2766100 0.0 1012775
14:00+3юз71364100 0.0 10091560
17:000ююз61177100 0.0 1010938
20:00−4ююз41296100 0.4 1012651
9 марта, вт
вт923:00−4юз3993100 0.4 1014529
02:00−4ююз3893100 0.8 1014527
05:00−5ююз2596100 3.1 1015325
08:00−6с2390100 4.2 1015352
11:00−3юз1273100 4.7 1014696
14:00−2зюз3462100 0.4 10121288
17:00−3зсз2364100 0.6 1011550
20:00−8ссв1180100 0.0 101421